This demonstration page uses our WeatherBlox Daily Observations layout. Learn more.

Left ArrowRight Arrow

39.12711, -84.51439

Hourly Observations for May 25, 2018

Temp ( °F °C ) Dew Point ( °F °C ) Humidity (%) Winds ( mph kmh ) Pressure ( in mb ) Visibility ( mi km ) Precip ( " mm )
12:53 am 00:53 Clear 60 15.6 59 15 96 96 Calm 30.08 1019 10 16 0.00 0.00
1:53 am 01:53 Clear 60 15.6 60 15.6 100 100 Calm 30.07 1018 9 14 0.00 0.00
2:53 am 02:53 Clear with Mist and Fog 59 15 59 15 100 100 Calm 30.05 1018 6 10 0.00 0.00
3:17 am 03:17 Clear with Mist and Fog 57 13.9 57 13.9 100 100 Calm 30.06 1018 2 3 0.00 0.00
3:25 am 03:25 Clear with Mist and Fog 58 14.4 58 14.4 100 100 Calm 30.06 1018 3 5 0.00 0.00
3:53 am 03:53 Clear with Mist and Fog 58 14.4 58 14.4 100 100 Calm 30.04 1017 6 10 0.00 0.00
4:53 am 04:53 Clear 57 13.9 57 13.9 100 100 Calm 30.04 1017 7 11 0.00 0.00
5:01 am 05:01 Clear with Mist and Fog 58 14.4 58 14.4 100 100 Calm 30.06 1018 2 3 0.00 0.00
5:13 am 05:13 Clear with Mist and Fog 57 13.9 57 13.9 100 100 Calm 30.06 1018 3 5 0.00 0.00
5:53 am 05:53 Clear with Mist and Fog 57 13.9 57 13.9 100 100 Calm 30.04 1017 2 3 0.00 0.00
6:04 am 06:04 Clear with Mist and Fog 56 13.3 56 13.3 100 100 Calm 30.06 1018 4 6 0.00 0.00
6:53 am 06:53 Sunny with Patchy Fog 57 13.9 57 13.9 100 100 Calm 30.04 1017 10 16 0.00 0.00
7:53 am 07:53 Sunny with Patchy Fog 61 16.1 61 16.1 100 100 Calm 30.04 1017 10 16 0.00 0.00
8:53 am 08:53 Sunny 66 18.9 63 17.2 90 90 Calm 30.02 1017 10 16 0.00 0.00
9:53 am 09:53 Sunny 73 22.8 66 18.9 79 79 Calm 30.01 1016 10 16 0.00 0.00
10:53 am 10:53 Sunny 78 25.6 63 17.2 60 60 SSW 3 6 30.00 1016 10 16 0.00 0.00
11:53 am 11:53 Sunny 80 26.7 62 16.7 54 54 VRB 3 6 29.99 1016 10 16 0.00 0.00
12:53 pm 12:53 Sunny 82 27.8 64 17.8 55 55 VRB 5 7 29.97 1015 10 16 0.00 0.00
1:53 pm 13:53 Mostly Sunny 83 28.3 63 17.2 51 51 S 5 7 29.96 1015 10 16 0.00 0.00
2:53 pm 14:53 Mostly Sunny 85 29.4 63 17.2 48 48 SSW 9 15 29.94 1014 10 16 0.00 0.00
3:53 pm 15:53 Mostly Sunny 85 29.4 60 15.6 43 43 SW 7 11 29.91 1013 10 16 0.00 0.00
4:53 pm 16:53 Sunny 85 29.4 61 16.1 45 45 Calm 29.88 1012 10 16 0.00 0.00
5:53 pm 17:53 Sunny 84 28.9 60 15.6 44 44 S 8 13 29.86 1011 10 16 0.00 0.00
6:53 pm 18:53 Sunny 83 28.3 61 16.1 48 48 SSW 7 11 29.85 1011 10 16 0.00 0.00
7:53 pm 19:53 Sunny 80 26.7 65 18.3 60 60 SW 6 9 29.86 1011 10 16 0.00 0.00
8:53 pm 20:53 Clear 76 24.4 65 18.3 69 69 S 3 6 29.87 1011 10 16 0.00 0.00
9:53 pm 21:53 Clear 70 21.1 65 18.3 84 84 Calm 29.85 1011 10 16 0.00 0.00
10:53 pm 22:53 Clear 68 20 64 17.8 87 87 Calm 29.87 1011 10 16 0.00 0.00
11:53 pm 23:53 Clear 67 19.4 65 18.3 93 93 Calm 29.86 1011 10 16 0.00 0.00

Powered by AerisWeather